TimePST,TemperatureF,Dew PointF,Humidity,Sea Level PressureIn,VisibilityMPH,Wind Direction,Wind SpeedMPH,Gust SpeedMPH,PrecipitationIn,Events,Conditions,WindDirDegrees,DateUTC
12:02 AM,60.8,57.2,88,30.06,2.5,Calm,Calm,-,N/A,,Overcast,0,2012-11-07 08:02:00
12:25 AM,60.8,57.2,88,30.06,1.0,Variable,3.5,-,N/A,,Overcast,0,2012-11-07 08:25:00
12:42 AM,59.0,57.2,94,30.05,2.0,Calm,Calm,-,N/A,,Overcast,0,2012-11-07 08:42:00
12:53 AM,59.0,57.0,93,30.05,3.0,Calm,Calm,-,N/A,,Overcast,0,2012-11-07 08:53:00
1:06 AM,59.0,57.2,94,30.06,2.5,South,4.6,-,N/A,,Overcast,180,2012-11-07 09:06:00
1:15 AM,59.0,55.4,88,30.05,3.0,Calm,Calm,-,N/A,,Overcast,0,2012-11-07 09:15:00
1:53 AM,59.0,55.9,90,30.04,4.0,Calm,Calm,-,N/A,,Overcast,0,2012-11-07 09:53:00
2:53 AM,59.0,55.9,90,30.03,5.0,Calm,Calm,-,N/A,,Overcast,0,2012-11-07 10:53:00
3:53 AM,57.9,55.0,90,30.02,4.0,Calm,Calm,-,N/A,,Overcast,0,2012-11-07 11:53:00
4:53 AM,55.9,53.1,90,30.03,2.5,Calm,Calm,-,N/A,,Overcast,0,2012-11-07 12:53:00
5:11 AM,55.4,53.6,94,30.04,0.8,Calm,Calm,-,N/A,,Overcast,0,2012-11-07 13:11:00
5:34 AM,53.6,51.8,94,30.03,0.2,East,3.5,-,N/A,Fog,Fog,80,2012-11-07 13:34:00
5:43 AM,53.6,51.8,94,30.04,0.5,East,3.5,-,N/A,Fog,Fog,80,2012-11-07 13:43:00
5:53 AM,53.1,51.1,93,30.03,1.0,East,3.5,-,N/A,,Overcast,100,2012-11-07 13:53:00
5:58 AM,53.6,51.8,94,30.04,0.2,Calm,Calm,-,N/A,Fog,Fog,0,2012-11-07 13:58:00
6:11 AM,53.6,53.6,100,30.04,0.8,Calm,Calm,-,N/A,,Overcast,0,2012-11-07 14:11:00
6:16 AM,53.6,53.6,100,30.04,2.0,Calm,Calm,-,N/A,,Overcast,0,2012-11-07 14:16:00
6:25 AM,55.4,53.6,94,30.04,0.8,Calm,Calm,-,N/A,,Overcast,0,2012-11-07 14:25:00
6:34 AM,55.4,53.6,94,30.04,0.2,Calm,Calm,-,N/A,Fog,Fog,0,2012-11-07 14:34:00
6:53 AM,55.0,53.1,93,30.04,0.2,Calm,Calm,-,N/A,Fog,Fog,0,2012-11-07 14:53:00
6:56 AM,55.4,53.6,94,30.05,1.0,Calm,Calm,-,N/A,,Overcast,0,2012-11-07 14:56:00
7:21 AM,55.4,53.6,94,30.05,2.5,Calm,Calm,-,N/A,,Overcast,0,2012-11-07 15:21:00
7:45 AM,55.4,53.6,94,30.06,3.0,Calm,Calm,-,N/A,,Overcast,0,2012-11-07 15:45:00
7:53 AM,55.9,53.1,90,30.06,2.5,Calm,Calm,-,N/A,,Overcast,0,2012-11-07 15:53:00
8:31 AM,55.4,53.6,94,30.06,3.0,Calm,Calm,-,N/A,,Overcast,0,2012-11-07 16:31:00
8:40 AM,55.4,53.6,94,30.06,2.5,WSW,3.5,-,N/A,,Overcast,240,2012-11-07 16:40:00
8:53 AM,55.9,53.1,90,30.06,2.5,Calm,Calm,-,N/A,,Overcast,0,2012-11-07 16:53:00
9:04 AM,57.2,51.8,82,30.07,4.0,Calm,Calm,-,N/A,,Haze,0,2012-11-07 17:04:00
9:12 AM,57.2,51.8,82,30.07,5.0,SSW,3.5,-,N/A,,Haze,200,2012-11-07 17:12:00
9:53 AM,61.0,53.1,75,30.06,7.0,SW,3.5,-,N/A,,Clear,220,2012-11-07 17:53:00
10:53 AM,64.0,54.0,70,30.04,9.0,Variable,3.5,-,N/A,,Clear,0,2012-11-07 18:53:00
11:53 AM,66.0,54.0,65,30.02,10.0,West,6.9,-,N/A,,Clear,280,2012-11-07 19:53:00
12:53 PM,66.0,55.9,70,30.00,10.0,WNW,6.9,-,N/A,,Clear,290,2012-11-07 20:53:00
1:53 PM,66.9,57.0,70,29.98,10.0,Variable,4.6,-,N/A,,Clear,0,2012-11-07 21:53:00
2:53 PM,66.0,55.9,70,29.97,10.0,West,3.5,-,N/A,,Clear,270,2012-11-07 22:53:00
3:53 PM,64.9,57.0,75,29.96,10.0,West,5.8,-,N/A,,Clear,260,2012-11-07 23:53:00
4:53 PM,63.0,57.0,81,29.96,10.0,Variable,3.5,-,N/A,,Clear,0,2012-11-08 00:53:00
5:14 PM,62.6,57.2,82,29.97,10.0,WNW,3.5,-,N/A,,Partly Cloudy,290,2012-11-08 01:14:00
5:29 PM,62.6,57.2,82,29.97,10.0,Calm,Calm,-,N/A,,Mostly Cloudy,0,2012-11-08 01:29:00
5:53 PM,63.0,57.0,81,29.97,10.0,Calm,Calm,-,N/A,,Overcast,0,2012-11-08 01:53:00
6:48 PM,62.6,57.2,82,29.97,10.0,Calm,Calm,-,N/A,,Scattered Clouds,0,2012-11-08 02:48:00
6:53 PM,62.1,57.0,84,29.96,10.0,Calm,Calm,-,N/A,,Partly Cloudy,0,2012-11-08 02:53:00
7:53 PM,62.1,55.9,80,29.97,8.0,Calm,Calm,-,N/A,,Clear,0,2012-11-08 03:53:00
8:02 PM,62.6,57.2,82,29.97,8.0,Calm,Calm,-,N/A,,Scattered Clouds,0,2012-11-08 04:02:00
8:13 PM,62.6,57.2,82,29.98,8.0,Calm,Calm,-,N/A,,Mostly Cloudy,0,2012-11-08 04:13:00
8:53 PM,62.1,57.0,84,29.98,8.0,Calm,Calm,-,N/A,,Overcast,0,2012-11-08 04:53:00
9:53 PM,63.0,57.0,81,29.99,10.0,Calm,Calm,-,N/A,,Overcast,0,2012-11-08 05:53:00
10:53 PM,63.0,55.9,78,29.99,10.0,Calm,Calm,-,N/A,,Overcast,0,2012-11-08 06:53:00
11:53 PM,63.0,55.0,75,29.98,10.0,Calm,Calm,-,N/A,,Overcast,0,2012-11-08 07:53:00